GSAT0212 (GALILEO 16)

Last updated on Thu Aug 20 2026 00:02:47 GMT+0000 (Coordinated Universal Time)

1 41860U 16069B 26230.95026231 -.00000029 00000+0 00000+0 0 9992 2 41860 55.5341 99.3432 0004092 28.3353 331.7658 1.70473929 60723
UTC large
Height (km)
Speed (km/s)
/
Latitude / Longitude
Inclination (degrees)
Orbital Period (minutes)
Azimuth
Elevation
Range (km)
Doppler Factor

Next 0 passes for location: London (51.5072 / 0.1276)

No passes found over London.
GSAT0212 (GALILEO 16)